{"data":{"norad_id":64194,"epoch":"2026-09-20T05:34:12.703008Z","epoch_age_seconds":163571,"freshness":"FRESH","line1":"1 64194U 25113AA  26263.23209147  .00009325  00000+0  31175-3 0  9991","line2":"2 64194  53.1608 265.8491 0001725  74.6736 285.4456 15.31712031 74832","mean_motion":15.31712031,"eccentricity":0.0001725,"inclination_deg":53.1608,"raan_deg":265.8491,"arg_perigee_deg":74.6736,"mean_anomaly_deg":285.4456,"bstar":0.00031175,"rev_number":7483,"period_min":94.012449524202,"perigee_km":469.52270658022,"apogee_km":471.88555677065,"semimajor_km":6848.8411316754,"source":"CELESTRAK","updated_at":"2026-09-21T09:00:35.268960Z"}}